Location: Ostrava
(49.8330°N, 18.2830°E)
Time: 17:18:29
(UTC+02:00)

Transit 2A - All Passes

Search period start: 17 August 2017 00:00
Search period end: 27 August 2017 00:00
Orbit: 595 x 964 km, 66.7° (Epoch: 16 August)

Date Brightness Start Highest point End Pass type
(mag) Time Alt. Az. Time Alt. Az. Time Alt. Az.
17 Aug - 01:13:36 10° NNW 01:17:00 16° NNE 01:20:34 10° NE visible
17 Aug - 02:56:35 10° NNW 03:01:53 36° NE 03:07:32 10° ESE visible
17 Aug - 04:39:40 10° NW 04:45:29 63° WSW 04:51:41 10° SSE visible
17 Aug - 06:25:11 10° WNW 06:27:48 13° WSW 06:30:26 10° SW daylight
17 Aug - 19:24:30 10° S 19:28:54 42° ESE 19:33:46 10° NE daylight
17 Aug - 21:07:38 10° WSW 21:12:10 38° NW 21:17:11 10° NNE visible
17 Aug - 22:53:48 10° NW 22:56:59 16° NNW 23:00:20 10° NNE visible
18 Aug - 00:39:27 10° NNW 00:42:32 15° N 00:45:45 10° NE visible
18 Aug - 02:22:37 10° NNW 02:27:38 30° NE 02:32:57 10° E visible
18 Aug - 04:05:35 10° NW 04:11:29 83° SW 04:17:46 10° SSE visible
18 Aug - 05:50:05 10° WNW 05:54:02 18° WSW 05:58:07 10° SSW daylight
18 Aug - 18:51:00 10° S 18:55:03 30° ESE 18:59:29 10° NE daylight
18 Aug - 20:33:19 10° WSW 20:37:59 50° NW 20:43:12 10° NNE visible
18 Aug - 22:19:04 10° WNW 22:22:33 18° NNW 22:26:16 10° NNE visible
19 Aug - 00:05:12 10° NNW 00:08:03 14° N 00:11:02 10° NE visible
19 Aug - 01:48:39 10° NNW 01:53:19 25° NNE 01:58:17 10° E visible
19 Aug - 03:31:33 10° NW 03:37:26 77° NE 03:43:43 10° SE visible
19 Aug - 05:15:29 10° WNW 05:20:14 25° WSW 05:25:11 10° SSW daylight
19 Aug - 18:17:46 10° SSE 18:21:16 21° ESE 18:25:02 10° ENE daylight
19 Aug - 19:59:07 10° SW 20:03:51 67° NW 20:09:11 10° NNE daylight
19 Aug - 21:44:21 10° WNW 21:48:09 21° NNW 21:52:14 10° NNE visible
19 Aug - 23:30:48 10° NNW 23:33:34 14° N 23:36:26 10° NNE visible
20 Aug - 01:14:40 10° NNW 01:18:58 21° NNE 01:23:31 10° ENE visible
20 Aug - 02:57:32 10° NNW 03:03:20 60° NE 03:09:31 10° SE visible
20 Aug - 04:41:06 10° NW 04:46:23 33° WSW 04:51:56 10° S visible
20 Aug - 17:44:58 10° SE 17:47:32 15° ESE 17:50:14 10° ENE daylight
20 Aug - 19:25:03 10° SW 19:29:48 89° ESE 19:35:08 10° NE daylight
20 Aug - 21:09:43 10° W 21:13:48 24° NNW 21:18:15 10° NNE visible
20 Aug - 22:56:16 10° NW 22:59:04 14° N 23:01:59 10° NNE visible
21 Aug - 00:40:38 10° NNW 00:44:34 19° NNE 00:48:43 10° ENE visible
21 Aug - 02:23:33 10° NNW 02:29:11 48° NE 02:35:12 10° ESE visible
21 Aug - 04:06:51 10° NW 04:12:29 45° WSW 04:18:25 10° S visible
21 Aug - 18:51:08 10° SSW 18:55:48 65° ESE 19:01:03 10° NE daylight
21 Aug - 20:35:09 10° W 20:39:29 29° NW 20:44:15 10° NNE visible
21 Aug - 22:21:37 10° NW 22:24:34 15° N 22:27:40 10° NNE visible
22 Aug - 00:06:34 10° NNW 00:10:09 17° NNE 00:13:53 10° NE visible
22 Aug - 01:49:34 10° NNW 01:54:59 38° NE 02:00:45 10° ESE visible
22 Aug - 03:32:42 10° NW 03:38:33 59° WSW 03:44:43 10° SSE visible
22 Aug - 05:18:37 10° W 05:20:46 12° WSW 05:22:57 10° WSW daylight
22 Aug - 18:17:22 10° S 18:21:52 46° ESE 18:26:52 10° NE daylight
22 Aug - 20:00:41 10° WSW 20:05:14 37° NW 20:10:16 10° NNE daylight
22 Aug - 21:46:54 10° NW 21:50:07 16° NNW 21:53:29 10° NNE visible
22 Aug - 23:32:26 10° NNW 23:35:41 15° NNE 23:39:05 10° NE visible
23 Aug - 01:15:36 10° NNW 01:20:44 31° NE 01:26:12 10° E visible
23 Aug - 02:58:36 10° NW 03:04:33 78° WSW 03:10:51 10° SSE visible
23 Aug - 04:43:17 10° WNW 04:47:02 17° WSW 04:50:53 10° SW visible
23 Aug - 17:43:48 10° S 17:48:01 32° ESE 17:52:38 10° NE daylight
23 Aug - 19:26:20 10° WSW 19:31:02 47° NW 19:36:16 10° NNE daylight
23 Aug - 21:12:10 10° WNW 21:15:40 18° NNW 21:19:23 10° NNE visible
23 Aug - 22:58:12 10° NNW 23:01:12 14° N 23:04:21 10° NE visible
24 Aug - 00:41:37 10° NNW 00:46:26 26° NNE 00:51:33 10° E visible
24 Aug - 02:24:33 10° NW 02:30:30 82° NE 02:36:50 10° SE visible
24 Aug - 04:08:36 10° WNW 04:13:15 23° WSW 04:18:03 10° SSW visible
24 Aug - 17:10:29 10° SSE 17:14:12 23° ESE 17:18:14 10° ENE daylight
24 Aug - 18:52:05 10° SW 18:56:53 63° NW 19:02:16 10° NNE daylight
24 Aug - 20:37:27 10° WNW 20:41:15 20° NNW 20:45:20 10° NNE visible
24 Aug - 22:23:50 10° NNW 22:26:43 14° N 22:29:42 10° NNE visible
25 Aug - 00:07:38 10° NNW 00:12:05 22° NNE 00:16:49 10° ENE visible
25 Aug - 01:50:32 10° NNW 01:56:25 64° NE 02:02:40 10° SE visible
25 Aug - 03:34:11 10° NW 03:39:25 31° WSW 03:44:52 10° S visible
25 Aug - 16:37:32 10° SE 16:40:28 16° ESE 16:43:34 10° ENE daylight
25 Aug - 18:17:59 10° SW 18:22:48 85° NW 18:28:13 10° NE daylight
25 Aug - 20:02:48 10° W 20:06:53 24° NNW 20:11:20 10° NNE daylight
25 Aug - 21:49:19 10° NW 21:52:12 14° N 21:55:12 10° NNE visible
25 Aug - 23:33:37 10° NNW 23:37:43 20° NNE 23:42:01 10° ENE visible
26 Aug - 01:16:32 10° NNW 01:22:16 51° NE 01:28:23 10° ESE visible
26 Aug - 02:59:55 10° NW 03:05:32 42° WSW 03:11:24 10° S visible
26 Aug - 16:05:30 10° ESE 16:06:46 11° E 16:08:04 10° E daylight
26 Aug - 17:44:02 10° SSW 17:48:48 71° ESE 17:54:08 10° NE daylight
26 Aug - 19:28:13 10° W 19:32:34 28° NW 19:37:20 10° NNE daylight
26 Aug - 21:14:42 10° NW 21:17:43 15° N 21:20:52 10° NNE visible
26 Aug - 22:59:33 10° NNW 23:03:17 17° NNE 23:07:12 10° ENE visible
